METEOR 2-5 DEB, 45511

Orbit data source: Space-Track

METEOR 2-5 DEB, 45511 is space debris in LEO originally from a launch on Wed, 31 Oct 1979 UTC launched from the Plesetsk Missile And Space Complex (PKMTR). Debris objects in space refer to the collection of defunct objects orbiting the Earth. Examples of debris include non-operational satellites, rocket bodies, and fragments generated from explosions, collisions, or faulty payload assembly.

Loading next visibility...
Identifier
45511, 1979-095CT
Orbit
LEO
Country
Flag of CISCIS
Related business
Manufacturer
Unknown
Mission
Spacecraft
Bus & Motor
Unknown
Mass
Unknown
Launch date (UTC)
1979-10-31 (46 years ago)
Launch vehicle
Unknown
Launch site
Plesetsk Missile And Space Complex (PKMTR)
Object type
Payload
Rocket body
Debris
Shape & HBR
Unknown shape, 0.1 m
Radar Cross Section
Small (<0.1 m²)

Expand to show TLE details & history
Last TLE update: 3 days ago

TLE from 3 days ago
0 METEOR 2-5 DEB
1 45511U 79095CT  25290.70870142  .00003150  00000-0  14251-2 0  9997
2 45511  81.2185  89.7264 0010451 127.7480 232.4646 14.21809486405277
Epoch: 2025-10-17T17:00Z
TLE epoch observation values (Epoch: 2025-10-17T17:00:31.802Z)
Latitude
-0.00002°
Longitude
168.1437°
Altitude
826.743 km
Speed
7.437 km/s
True Right ascension
05h 58m 54s
True Declination
0° 00' 00"
Sunlit
Object was in daylight at epoch
Visualization orbit readout
Latitude
Unknown
Longitude
Unknown
Altitude
Unknown
Speed
Unknown
Apparent Right ascension
Unknown
Apparent Declination
Unknown
Sunlit
N/A
Visualization observer readout
Local Sidereal Time
17:55:52
Azimuth
Unknown
Elevation
Unknown
Doppler factor
Unknown
Orbital elements
Apogee altitude
823.918 km
Perigee altitude
808.88 km
Semi-major axis
7,194.536 km
Eccentricity
0.00105
Inclination
81.2185°
RAAN
89.7264°
Arg. of periapsis
127.748°
True anomaly
232.36971°
Mean anomaly
232.4646°
Eccentric anomaly
232.41715°
Mean motion
3.55663 °/min
Orbital period
101.22 mins
BSTAR
0.0014251
Loading maneuver chart data...
Computing Atmospheric mass density...
Loading historical data...
Loading historical data...
Loading historical data...
Loading historical data...
Loading historical data...
Loading historical data...
Loading historical data...

Documentation

Showing up to 5 results
|